Regional Weather Roundup
Issued by NWS

Home | Current Version | Previous Version | Text Only | Print | Product List | Glossary On
Versions: 1 2 3 4 5 6 7 8 9 10 11 12 13 14 15 16 17 18 19 20 21 22 23 24 25 26 27 28 29 30 31 32 33 34 35 36 37 38 39 40 41 42 43 44 45 46 47 48 49 50
000
ASUS43 KLMK 010710
RWRKY
KENTUCKY REGIONAL WEATHER ROUNDUP
NATIONAL WEATHER SERVICE LOUISVILLE KY
200 AM EST SUN FEB 01 2015

NOTE "FAIR" INDICATES FEW OR NO CLOUDS BELOW 12,000 FEET
WITH NO SIGNIFICANT WEATHER AND/OR OBSTRUCTIONS TO VISIBILITY.

KYZ001>023-026-027-061>063-070>075-010800-
WESTERN AND SOUTH CENTRAL KENTUCKY

CITY           SKY/WX    TMP DP  RH WIND       PRES   REMARKS
PADUCAH        CLOUDY    42  22  44 SE5       30.04F
HENDERSON      CLOUDY    39  21  48 SE6       30.09F WCI  35
OWENSBORO      CLOUDY    40  24  53 S9        30.09F WCI  34
HOPKINSVILLE   CLOUDY    44  16  32 SE10      30.06F
BOWLING GREEN  CLOUDY    39  23  52 E3        30.13F
GLASGOW        CLOUDY    37  26  66 CALM      30.15F
$$

KYZ024-025-028>034-038-045-046-053-010800-
NORTH CENTRAL KENTUCKY

CITY           SKY/WX    TMP DP  RH WIND       PRES   REMARKS
LOUISVILLE/SDF CLOUDY    38  22  52 E7        30.16F WCI  33
LOUISVILLE/LOU CLOUDY    38  21  50 SE3       30.18F
FORT KNOX      CLOUDY    36  22  55 E9        30.12F WCI  29
$$

KYZ035>037-039>044-047>052-055>060-089>105-010800-
NORTHEAST KENTUCKY

CITY           SKY/WX    TMP DP  RH WIND       PRES   REMARKS
LEXINGTON      CLOUDY    34  20  56 W3        30.20R
COVINGTON      CLOUDY    33  29  85 E5        30.18F WCI  29
FRANKFORT      CLOUDY    34  21  59 CALM      30.19R
$$

KYZ054-064>069-076>088-106>120-010800-
SOUTHEAST KENTUCKY

CITY           SKY/WX    TMP DP  RH WIND       PRES   REMARKS
JACKSON        CLOUDY    36  10  34 E5        30.20F WCI  32
LONDON         CLOUDY    37  17  44 CALM      30.19F
SOMERSET       CLOUDY    36  19  51 CALM      30.20F
MIDDLESBORO    CLOUDY    37  22  54 CALM      30.23S
MONTICELLO     CLOUDY    40  11  30 SE6       30.20F
$$



USA.gov is the U.S. government's official web portal to all federal, state and local government web resources and services.